This demonstration page uses our WeatherBlox Daily Observations layout. Learn more.

Left ArrowRight Arrow

39.51506, -84.39828

Hourly Observations for October 29, 2015

Temp ( °F °C ) Dew Point ( °F °C ) Humidity (%) Winds ( mph kmh ) Pressure ( in mb ) Visibility ( mi km ) Precip ( " mm )
12:15 am 00:15 Cloudy 57 13.8 50 10.1 79 79 SW 10 17 29.65 1004 10 16 N/A
12:35 am 00:35 Cloudy 57 13.8 50 9.8 77 77 WSW 9 15 29.65 1004 10 16 N/A
12:55 am 00:55 Cloudy with Drizzle 57 13.8 48 8.7 72 72 W 18 30 29.65 1004 10 16 N/A
1:15 am 01:15 Cloudy 57 13.8 47 8.3 70 70 W 17 28 29.65 1004 10 16 N/A
1:35 am 01:35 Cloudy 57 13.8 45 7.4 66 66 W 14 22 29.65 1004 10 16 N/A
1:55 am 01:55 Cloudy 53 11.9 42 5.3 64 64 WNW 22 35 29.71 1006 10 16 N/A
2:15 am 02:15 Cloudy 49 9.6 35 1.5 57 57 WNW 20 31 29.74 1007 10 16 N/A
2:35 am 02:35 Mostly Cloudy 49 9.6 36 2.1 60 60 WNW 15 24 29.74 1007 10 16 N/A
2:55 am 02:55 Partly Cloudy 49 9.6 35 1.7 58 58 W 12 19 29.74 1007 10 16 N/A
3:15 am 03:15 Mostly Cloudy 49 9.6 35 1.5 57 57 W 8 13 29.74 1007 10 16 N/A
3:35 am 03:35 Partly Cloudy 49 9.6 35 1.8 59 59 SW 6 9 29.74 1007 10 16 N/A
3:55 am 03:55 Clear 45 7.4 35 1.4 66 66 SW 6 9 29.74 1007 10 16 N/A
4:15 am 04:15 Clear 44 6.5 34 1.3 70 70 SSW 5 7 29.74 1007 10 16 N/A
4:35 am 04:35 Clear 43 6.1 35 1.7 74 74 SW 3 6 29.74 1007 10 16 N/A
4:55 am 04:55 Clear 42 5.8 36 2.1 77 77 SW 6 9 29.74 1007 10 16 N/A
5:15 am 05:15 Clear 42 5.8 36 2.1 77 77 SW 5 7 29.74 1007 10 16 N/A
5:35 am 05:35 Clear 42 5.8 35 1.7 75 75 SW 6 9 29.74 1007 10 16 N/A
5:55 am 05:55 Clear 42 5.8 36 2 77 77 SW 6 9 29.74 1007 10 16 N/A
6:15 am 06:15 Partly Cloudy 43 6.2 36 2 75 75 SW 7 11 29.74 1007 10 16 N/A
6:35 am 06:35 Mostly Cloudy 43 6.1 36 2.1 76 76 SW 8 13 29.77 1008 10 16 N/A
6:55 am 06:55 Mostly Cloudy 44 6.5 36 2.3 75 75 SW 7 11 29.77 1008 10 16 N/A
7:15 am 07:15 Mostly Cloudy 43 6.3 36 2.4 76 76 SW 7 11 29.77 1008 10 16 N/A
7:35 am 07:35 Mostly Cloudy 44 6.8 37 3 77 77 SW 8 13 29.77 1008 10 16 N/A
7:55 am 07:55 Cloudy 44 6.8 37 3 77 77 WSW 6 9 29.77 1008 10 16 N/A
8:15 am 08:15 Mostly Cloudy 43 6.1 36 2.3 77 77 W 5 7 29.77 1008 10 16 N/A
8:35 am 08:35 Mostly Cloudy 47 8.2 39 4.1 76 76 WSW 3 6 29.77 1008 10 16 N/A
8:55 am 08:55 Mostly Cloudy 47 8.5 39 4.1 74 74 WNW 7 11 29.77 1008 10 16 N/A
9:15 am 09:15 Mostly Cloudy 49 9.6 41 4.9 73 73 W 10 17 29.80 1009 10 16 N/A
9:35 am 09:35 Mostly Cloudy 49 9.6 39 4 68 68 W 14 22 29.80 1009 10 16 N/A
9:55 am 09:55 Partly Cloudy 49 9.6 38 3.6 66 66 W 13 20 29.80 1009 10 16 N/A
10:15 am 10:15 Sunny 49 9.6 37 2.9 63 63 W 9 15 29.80 1009 10 16 N/A
10:35 am 10:35 Sunny 49 9.6 34 1.3 57 57 W 14 22 29.80 1009 10 16 N/A
10:55 am 10:55 Sunny 51 10.3 33 0.4 51 51 W 16 26 29.80 1009 10 16 N/A
11:15 am 11:15 Sunny 52 11 30 -1.2 43 43 WSW 22 35 29.83 1010 10 16 N/A
11:35 am 11:35 Sunny 54 12.3 30 -1.2 39 39 W 23 37 29.83 1010 10 16 N/A
11:55 am 11:55 Sunny 55 12.5 29 -1.5 38 38 W 14 22 29.83 1010 10 16 N/A
12:15 pm 12:15 Sunny 55 12.5 24 -4.5 31 31 W 21 33 29.83 1010 10 16 N/A
12:35 pm 12:35 Sunny 55 12.5 25 -3.9 32 32 W 20 31 29.83 1010 10 16 N/A
12:55 pm 12:55 Sunny 55 12.5 24 -4.5 31 31 WSW 23 37 29.83 1010 10 16 N/A
1:15 pm 13:15 Sunny 55 12.5 23 -4.8 30 30 W 15 24 29.83 1010 10 16 N/A
1:35 pm 13:35 Sunny 55 12.5 22 -5.6 28 28 WSW 15 24 29.83 1010 10 16 N/A
1:55 pm 13:55 Sunny 55 12.6 22 -5.6 28 28 WSW 17 28 29.83 1010 10 16 N/A
2:15 pm 14:15 Sunny with Light Rain 56 13.3 22 -5.8 26 26 W 18 30 29.83 1010 10 16 N/A
2:35 pm 14:35 Sunny 56 13.4 22 -5.6 26 26 WSW 21 33 29.83 1010 10 16 N/A
2:55 pm 14:55 Sunny 57 13.8 24 -4.5 28 28 W 12 19 29.83 1010 10 16 N/A
3:15 pm 15:15 Sunny 57 13.8 24 -4.5 28 28 W 15 24 29.83 1010 10 16 N/A
3:35 pm 15:35 Sunny 57 13.8 23 -5 27 27 W 13 20 29.83 1010 10 16 N/A
3:55 pm 15:55 Sunny 57 13.8 24 -4.3 28 28 WNW 16 26 29.83 1010 10 16 N/A
4:15 pm 16:15 Sunny 57 13.8 25 -3.7 30 30 WNW 18 30 29.83 1010 10 16 N/A
4:35 pm 16:35 Sunny 56 13.6 26 -3.3 31 31 WNW 15 24 29.83 1010 10 16 N/A
4:55 pm 16:55 Sunny 55 13 25 -3.7 31 31 W 15 24 29.85 1011 10 16 N/A
5:15 pm 17:15 Sunny 55 12.5 26 -3.4 33 33 W 12 19 29.85 1011 10 16 N/A
5:35 pm 17:35 Sunny 55 12.5 26 -3.1 34 34 W 12 19 29.88 1012 10 16 N/A
5:55 pm 17:55 Sunny 55 12.5 28 -2.1 36 36 WNW 14 22 29.88 1012 10 16 N/A
6:15 pm 18:15 Sunny 55 12.5 30 -1.1 39 39 WNW 13 20 29.88 1012 10 16 N/A
6:35 pm 18:35 Sunny 52 11 30 -1 44 44 W 9 15 29.88 1012 10 16 N/A
6:55 pm 18:55 Clear 49 9.6 31 -0.7 49 49 WNW 7 11 29.91 1013 10 16 N/A
7:15 pm 19:15 Partly Cloudy 49 9.6 32 undefined 52 52 W 6 9 29.91 1013 10 16 N/A
7:35 pm 19:35 Partly Cloudy 49 9.6 33 0.7 54 54 NW 9 15 29.91 1013 10 16 N/A
7:55 pm 19:55 Mostly Cloudy 49 9.6 35 1.5 57 57 NW 14 22 29.94 1014 10 16 N/A
8:15 pm 20:15 Cloudy 49 9.6 35 1.9 59 59 NW 8 13 29.94 1014 10 16 N/A
8:35 pm 20:35 Cloudy 49 9.6 36 2.1 60 60 NW 12 19 29.94 1014 10 16 N/A
8:55 pm 20:55 Cloudy 49 9.6 37 2.5 62 62 NW 10 17 29.97 1015 10 16 N/A
9:15 pm 21:15 Cloudy 49 9.6 37 2.5 62 62 WNW 9 15 29.97 1015 10 16 N/A
9:35 pm 21:35 Cloudy 49 9.6 37 2.6 62 62 WNW 9 15 29.97 1015 10 16 N/A
9:55 pm 21:55 Cloudy 47 8.5 35 1.5 62 62 WNW 9 15 29.97 1015 10 16 N/A
10:15 pm 22:15 Cloudy 47 8.2 34 1.1 61 61 WNW 7 11 29.97 1015 10 16 N/A
10:35 pm 22:35 Mostly Cloudy 47 8.2 35 1.4 63 63 W 6 9 30.00 1016 10 16 N/A
10:55 pm 22:55 Mostly Cloudy 47 8.2 35 1.6 63 63 W 5 7 30.00 1016 10 16 N/A
11:15 pm 23:15 Cloudy 47 8.2 35 1.4 63 63 W 5 7 30.00 1016 10 16 N/A
11:35 pm 23:35 Cloudy 47 8.2 35 1.6 63 63 W 6 9 30.00 1016 10 16 N/A
11:55 pm 23:55 Cloudy 47 8.2 35 1.5 63 63 W 5 7 30.00 1016 10 16 N/A

Powered by AerisWeather